sat.trackr.live / text

‹ back to catalog

SHIYAN-1 (SY-1)

NORAD 28220 · 2004-012A

PAYLOAD ACTIVE UNKNOWN

§ Identity

Operator
Country
PRC
Launch date
2004-04-18
Launch site
XICLF
Launch vehicle
Mass (kg)
RCS (m²)
1.55

Purposes: earth_obs

External: N2YO · Heavens-Above · Gunter

§ Orbital elements

Epoch: 2026-05-25T03:34:13.587168Z

Period
93.93 min
Inclination
97.8692°
Eccentricity
0.0007125
Mean motion
15.33070199 rev/d
Perigee alt
461.8 km
Apogee alt
471.5 km
Semi-major
6,844.8 km
B*
4.0182e-4
RAAN
221.7324°
Arg perigee
103.2211°
Mean anomaly
256.9825°
Rev number
20,756

§ Raw data

SHIYAN-1 (SY-1)1 28220U 04012A   26145.14876837  .00012768  00000+0  40182-3 0  99942 28220  97.8692 221.7324 0007125 103.2211 256.9825 15.33070199207568

JSON: /api/v1/satellites/28220 · /tle

For live sub-satellite position, see the globe view (requires WebGL).

§ Visibility from observer

Set your observer location to see the next 7 days of passes ≥ 10°. The values pass through the URL so the page stays shareable.

No JS? Fill the form by hand. The geolocation button needs JavaScript.